Regional Weather Roundup
Issued by NWS

Home | Current Version | Previous Version | Text Only | Print | Product List | Glossary Off
Versions: 1 2 3 4 5 6 7 8 9 10 11 12 13 14 15 16 17 18 19 20 21 22 23 24 25 26 27 28 29 30 31 32 33 34 35 36 37 38 39 40 41 42 43 44 45 46 47 48 49 50

000
ASUS43 KMKX 031721
RWRWI

WISCONSIN REGIONAL WEATHER ROUNDUP
NATIONAL WEATHER SERVICE MILWAUKEE/SULLIVAN WI
1200 PM CDT THU SEP 03 2015

NOTE: "FAIR" INDICATES FEW OR NO CLOUDS BELOW 12,000 FEET WITH NO
SIGNIFICANT WEATHER AND/OR OBSTRUCTIONS TO VISIBILITY.

WIZ001-002-006>008-014>016-023>028-031800-
NORTHWEST WISCONSIN

CITY           SKY/WX    TMP DP  RH WIND       PRES   REMARKS
SUPERIOR ARPT  FOG       60  60 100 NE7       29.99F VSB 3/4
ASHLAND        CLOUDY    65  65 100 N7        30.00F FOG
HAYWARD        CLOUDY    71  64  78 VRB7      30.00S
SIREN          SUNNY     74  65  72 E8        29.96S
CUMBERLAND     MOSUNNY   73  64  73 SE7       29.97F
RICE LAKE      SUNNY     75  66  74 E6        29.98F
CHETEK         SUNNY    N/A N/A N/A E7        29.97S
LADYSMITH      SUNNY     77  66  69 E8        30.00S
EAU CLAIRE     CLOUDY    72  65  78 E8        29.96R
MENOMONIE      CLOUDY    74  67  78 E8        29.97S
NEW RICHMOND   PTSUNNY   74  69  82 SE8       29.96S
OSCEOLA        MOSUNNY   77  73  88 E12       29.97S
$$

WIZ003>005-009-010-017-018-031800-
NORTH CENTRAL WISCONSIN

CITY           SKY/WX    TMP DP  RH WIND       PRES   REMARKS
MANITOWISH WTR MOSUNNY   74  64  69 SE7       30.01S
ARBOR VITAE    MOSUNNY   77  66  68 SE7       30.00S
WOODRUFF       MOSUNNY   77  66  68 SE7       30.00S
RHINELANDER    PTSUNNY   73  64  73 SE6       30.01F
EAGLE RIVER    MOSUNNY   74  62  65 E7        30.01S
LAND O LAKES   PTSUNNY   73  63  69 NE6       30.02F
PHILLIPS       MOSUNNY   75  64  69 E5        29.99S
TOMAHAWK       PTSUNNY   70  63  78 NE3       30.01S
MEDFORD        CLOUDY    70  65  85 E8        30.00S
MERRILL        CLOUDY    70  65  85 NE3       30.00S
$$

WIZ029-030-035-036-043>047-031800-
CENTRAL WISCONSIN

CITY           SKY/WX    TMP DP  RH WIND       PRES   REMARKS
WAUSAU         CLOUDY    73  65  75 N7        29.97F
MOSINEE        CLOUDY    68  66  94 NE5       29.99S
MARSHFIELD     CLOUDY    72  64  76 NE8       29.98S
STEVENS POINT  CLOUDY    70  65  83 NE6       29.98S
WAUPACA        CLOUDY    75  69  79 N5        29.96F
WAUTOMA        PTSUNNY   75  66  73 CALM      29.97R
WISC RAPIDS    CLOUDY    73  64  73 NE8       29.98S
CAMP DOUGLAS   CLOUDY    75  75 100 CALM      29.95S
$$

WIZ011>013-019>022-031-037>040-048>050-031800-
NORTHEAST WISCONSIN

CITY           SKY/WX    TMP DP  RH WIND       PRES   REMARKS
ANTIGO         CLOUDY    69  65  85 E5        30.00F
SHAWANO        NOT AVBL
OCONTO         CLOUDY    69  69 100 N8        29.95R
STURGEON BAY   CLOUDY    68  64  88 N10       29.96S
GREEN BAY      CLOUDY    73  67  81 N10       29.95R
MANITOWOC      CLOUDY    74  68  81 MISG      29.94R
APPLETON       CLOUDY    70  68  94 NW8       29.95R
CLINTONVILLE   CLOUDY    73  64  73 NE8       29.96S
OSHKOSH        CLOUDY    72  66  81 N8        29.95S
$$

WIZ032>034-041-042-053>061-031800-
SOUTHWEST WISCONSIN

CITY           SKY/WX    TMP DP  RH WIND       PRES   REMARKS
LA CROSSE      SUNNY     84  71  65 VRB3      29.92S HX  89
SPARTA         MOSUNNY   80  68  66 E8        29.95R HX  83
VIROQUA          N/A     83  71  66 CALM      29.95S HX  88
BOSCOBEL       MOSUNNY   87  72  60 VRB3      29.92S HX  93
PRAIRIE DU CHI SUNNY     84  68  58 CALM      29.92S HX  87
PLATTEVILLE    SUNNY     83  74  75 SW6       29.95S HX  90
$$

WIZ056-057-062-063-064-067-068-031800-
SOUTH CENTRAL WISCONSIN

CITY           SKY/WX    TMP DP  RH WIND       PRES   REMARKS
REEDSBURG      PTSUNNY   80  72  75 N6        29.93S HX  84
BARABOO/DELLS  PTSUNNY   81  69  67 NE5       29.94S HX  84
LONE ROCK      SUNNY     85  71  63 CALM      29.93F HX  90
MINERAL POINT  SUNNY     84  72  65 CALM      29.95S HX  89
MADISON        PTSUNNY   83  70  64 NW3       29.93R HX  87
MIDDLETON      SUNNY     86  70  57 N6        29.94S HX  90
WATERTOWN      CLOUDY    81  74  80 W5        29.94R HX  86
MONROE         SUNNY     82  70  65 W3        29.95S HX  86
JANESVILLE     MOSUNNY   84  70  61 W6        29.93S HX  88
$$

WIZ051-052-058>065-066-070>072-031800-
SOUTHEAST WISCONSIN

CITY           SKY/WX    TMP DP  RH WIND       PRES   REMARKS
MILWAUKEE      MOSUNNY   85  71  63 SW5       29.92S HX  90
WAUKESHA       MOSUNNY   81  70  69 SW6       29.95S HX  84
MILWAUKEE/TIMM MOSUNNY   82  66  57 NW3       29.93S HX  85
RACINE         CLOUDY    84  70  62 W7        29.94S HX  88
BURLINGTON     MOSUNNY   82  69  64 W7        29.94S HX  86
KENOSHA        CLOUDY    83  71  67 W6        29.94S HX  87
FOND DU LAC    CLOUDY    72  67  84 NE7       29.96R
SHEBOYGAN      CLOUDY    75  68  78 NW8       29.94S
WEST BEND      CLOUDY    75  68  78 NW3       29.95R
JUNEAU         CLOUDY    76  71  85 N6        29.96R
$$

LSZ147-162-031800-
LAKE SUPERIOR

STATION/POSITION TIME  TEMP    WIND        PRES    WAVE
                       AIR SEA DIR/SP/G            HT/PER
                 (UTC) (F)     (DEG/KT/KT) (MB)    (FT/S)
W MID LAKE BUOY  1650   58 57   60/  6/  8 1016.1F   0
DEVILS ISLAND    1700   58      60/  8/  9 1016.2F
PORT WING        1600   59      30/ 11/ 12 1015.9S
SAXON HARBOR     1640   63      20/  3/  5 1015.6S
$$

LMZ867-665-643>646-031800-
LAKE MICHIGAN

STATION/POSITION TIME  TEMP    WIND        PRES    WAVE
                       AIR SEA DIR/SP/G            HT/PER
                 (UTC) (F)     (DEG/KT/KT) (MB)    (FT/S)
CHAMBERS ISLAND  1600   65     360/ 11/ 12 1013.9
S GREEN BAY BUOY 1600   67 66   20/ 14/ 17 1015.0
N MID LAKE BUOY  1650   67 66  350/  6/  6 1013.2R   2/ 5
NORTHPORT PIER   1600   68      50/  5/  8 1013.9R
SISTER BAY       1611   72      10/  3/  6   N/A
ALGOMA LAKESHORE 1614           20/  7/ 10   N/A
KEWAUNEE LAKESHO 1700   64      20/  6/  9 1012.7
SHEBOYGAN LAKESH 1700   64      60/  2/  2 1013.8R
PORT WASHINGTON  1600   63      30/  6/  9 1013.9R
ATWATER BUOY     1700   68     130/  2/  4 1014.8R
MILWAUKEE LAKESH 1710   70      60/  6/  6   N/A
S MID LAKE BUOY  1650   73 71  210/  6/  6 1013.0F   1/ 3
KENOSHA   LAKESH 1700   82     130/  3/  5 1013.2S
$$

TC  - TEMPERATURE IN CELSIUS
VSB - VISIBILITY IN STATUTE MILES
WCI - WIND CHILL INDEX
HX  - HEAT INDEX



USA.gov is the U.S. government's official web portal to all federal, state and local government web resources and services.